Regional Weather Roundup
Issued by NWS

Home | Current Version | Previous Version | Text Only | Print | Product List | Glossary Off
Versions: 1 2 3 4 5 6 7 8 9 10 11 12 13 14 15 16 17 18 19 20 21 22 23 24 25 26 27 28 29 30 31 32 33 34 35 36 37 38 39 40 41 42 43 44 45 46 47 48 49 50

000
ASUS43 KIND 251209
RWRIN

WEATHER ROUNDUP FOR INDIANA
NATIONAL WEATHER SERVICE INDIANAPOLIS IN
800 AM EDT TUE JUL 25 2017

NOTE: "FAIR" INDICATES FEW OR NO CLOUDS BELOW 12,000 FEET WITH NO
SIGNIFICANT WEATHER AND/OR OBSTRUCTIONS TO VISIBILITY.

* - STATION DOES NOT REPORT WEATHER SUCH AS PRECIPITATION OR FOG.

+ - STATION NOT QUALITY CONTROLLED BY THE NATIONAL WEATHER SERVICE.
    USE DATA WITH CAUTION...ESPECIALLY DEWPOINT AND RELATIVE
    HUMIDITY OBSERVATIONS.

INZ001>003-010>013-019-020-251300-
NORTHWEST INDIANA

CITY           SKY/WX    TMP DP  RH WIND       PRES   REMARKS
GARY /AIRPORT/ MOSUNNY   64  61  88 SE7       30.19R
KNOX *+        CLOUDY    59  57  94 E3        30.20S
LA PORTE +     SUNNY     60  59  97 E3        30.21R
6HR MIN TEMP:  55; 6HR MAX TEMP:  60;

MICHIGAN CITY+ SUNNY     59  59 100 SE3       30.21R
MONTICELLO +   SUNNY     60  59  96 E5        30.19R
6HR MIN TEMP:  57; 6HR MAX TEMP:  62;

RENSSELAER +   SUNNY     59  57  94 E3        30.20R
VALPARAISO     SUNNY     61  60  97 E6        30.20S
6HR MIN TEMP:  57; 6HR MAX TEMP:  62;


$$

LMZ046-743>745-251300-
SOUTHERN LAKE MICHIGAN

STATION/POSITION TIME  TEMP    WIND        PRES    WAVE
                       AIR SEA DIR/SP/G            HT
                 (UTC) (F)     (DEG/KT/KT) (MB)    (FT)
BURNS HARBOR     1140   67     100/  7/  9 1022.4F
MICHIGAN CITY    1140   63     110/  5/  6   N/A
5NW MICH CITY    1200   67 74  140/  8/ 12   N/A     3

$$

INZ004-005-014>016-021>024-251300-
NORTH CENTRAL INDIANA

CITY           SKY/WX    TMP DP  RH WIND       PRES   REMARKS
ELKHART        SUNNY     61  57  88 CALM      30.21S
GOSHEN         SUNNY     59  56  89 CALM      30.22R
6HR MIN TEMP:  53; 6HR MAX TEMP:  59;

LOGANSPORT +   SUNNY     61  59  94 E3        30.21R
PERU/GRISSOM   SUNNY     63  62  97 E3        30.19R
6HR MIN TEMP:  57; 6HR MAX TEMP:  63;

ROCHESTER +    CLOUDY    61  61 100 CALM      30.22R
SOUTH BEND     SUNNY     62  58  86 E3        30.22R
6HR MIN TEMP:  56; 6HR MAX TEMP:  62;

WARSAW +       SUNNY     59  57  94 CALM      30.21S

$$

INZ006>009-017-018-025>027-251300-
NORTHEAST INDIANA

CITY           SKY/WX    TMP DP  RH WIND       PRES   REMARKS
AUBURN +       SUNNY     59  55  88 CALM      30.22S
FORT WAYNE     MOSUNNY   62  57  83 CALM      30.21R
6HR MIN TEMP:  55; 6HR MAX TEMP:  62;

HUNTINGTON +   SUNNY     59  58  96 CALM      30.21R
6HR MIN TEMP:  55; 6HR MAX TEMP:  59;

KENDALLVILLE + SUNNY     57  57 100 CALM      30.22S

$$

INZ028-029-035-036-043>045-051>053-251300-
WEST CENTRAL INDIANA

CITY           SKY/WX    TMP DP  RH WIND       PRES   REMARKS
GREENCASTLE +  SUNNY     63  59  88 SE5       30.19R
LAFAYETTE      SUNNY     62  60  93 E6        30.19R
6HR MIN TEMP:  58; 6HR MAX TEMP:  64;

TERRE HAUTE    SUNNY     65  59  81 E5        30.17R
6HR MIN TEMP:  62; 6HR MAX TEMP:  67;


$$

INZ030>032-037>040-046>048-054>057-064-065-251300-
CENTRAL INDIANA

CITY           SKY/WX    TMP DP  RH WIND       PRES   REMARKS
CP ATTERBURY + SUNNY     61  59  94 CALM      30.19R
COLUMBUS       MOSUNNY   61  59  94 CALM      30.19R
FRANKFORT +    SUNNY     63  60  91 E6        30.20S
6HR MIN TEMP:  58; 6HR MAX TEMP:  64;

GREENWOOD *+   SUNNY    N/A N/A N/A SE6       30.19R
INDIANAPOLIS   MOSUNNY   65  57  75 E9        30.18R
6HR MIN TEMP:  63; 6HR MAX TEMP:  69;

-EAGLE CREEK   SUNNY     65  58  78 E6        30.18R
6HR MIN TEMP:  61; 6HR MAX TEMP:  67;

KOKOMO +       SUNNY     61  59  93 E5        30.21R
6HR MIN TEMP:  56; 6HR MAX TEMP:  62;

MARION +       SUNNY     61  59  94 CALM      30.21R
MT COMFORT *+  SUNNY     59  57  94 NE3       30.19R
SHELBYVILLE    SUNNY     63  58  83 E5        30.18R
6HR MIN TEMP:  58; 6HR MAX TEMP:  63;

ZIONSVILLE +   SUNNY     61  58  91 E5        30.20R
6HR MIN TEMP:  56; 6HR MAX TEMP:  62;


$$

INZ033-034-041-042-049-050-058-059-251300-
EAST CENTRAL INDIANA

CITY           SKY/WX    TMP DP  RH WIND       PRES   REMARKS
MUNCIE         SUNNY     63  59  87 CALM      30.21R
6HR MIN TEMP:  56; 6HR MAX TEMP:  63;

RICHMOND +     SUNNY     59  57  94 E3        30.21R

$$

INZ060-061-067>069-081>083-085>088-251300-
SOUTHWEST INDIANA

CITY           SKY/WX    TMP DP  RH WIND       PRES   REMARKS
EVANSVILLE     SUNNY     71  66  84 NE9       30.11S
6HR MIN TEMP:  70; 6HR MAX TEMP:  72;

HUNTINGBURG *+ MOSUNNY   69  64  84 E6        30.14
6HR MIN TEMP:  68; 6HR MAX TEMP:  71;


$$

INZ062-063-066-070>080-084-089>092-251300-
SOUTH CENTRAL AND SOUTHEAST INDIANA

CITY           SKY/WX    TMP DP  RH WIND       PRES   REMARKS
BEDFORD +      SUNNY     64  59  82 NE6       30.16R
BLOOMINGTON    SUNNY     65  58  78 E8        30.17R
6HR MIN TEMP:  64; 6HR MAX TEMP:  69;

MADISON *+     SUNNY     64  59  82 E6        30.20R
NORTH VERNON + SUNNY     63  59  88 E3        30.18R
SEYMOUR +      MOSUNNY  N/A N/A N/A CALM      30.18R

$$





USA.gov is the U.S. government's official web portal to all federal, state and local government web resources and services.